[TLELIST] Archives

 

[list_settings.list_name] Current TLEs

September 28th 2022 PST

HST 1 20580U 90037B 22271.16218949 .00002833 00000-0 15494-3 0 9990 2 20580 28.4694 208.0643 0002625 66.4223 62.8147 15.10926811582031 ISS (ZARYA) 1 25544U 98067A 22271.29875188 .00011405 00000-0 20504-3 0 9997 2 25544 51.6445 185.7292 0002377 302.6655 202.5977 15.50344723361171 CXO 1 25867U 99040B 22273.82516906 .00001071 00000-0 00000+0 0 9991 2 25867 42.4697 226.2530 8915571 239.8069 0.6749 0.37811419 23358 ____________________________________________________________________ These 2-Line ...Continue Reading

[list_settings.list_name] Current TLEs

September 27th 2022 PST

HST 1 20580U 90037B 22270.10230376 .00002817 00000-0 15407-3 0 9997 2 20580 28.4695 215.0912 0002610 55.5754 57.1567 15.10921774581867 ISS (ZARYA) 1 25544U 98067A 22270.26577942 .00010327 00000-0 18661-3 0 9993 2 25544 51.6442 190.8477 0002400 299.6081 196.6119 15.50315881361012 CXO 1 25867U 99040B 22271.18095592 .00001109 00000-0 00000-0 0 9994 2 25867 42.5443 226.4803 8914913 239.6716 0.6234 0.37815004 12181 ____________________________________________________________________ These 2-Line ...Continue Reading

[list_settings.list_name] Current TLEs

September 26th 2022 PST

HST 1 20580U 90037B 22268.11944774 .00002599 00000-0 14131-3 0 9999 2 20580 28.4694 228.2374 0002566 35.4693 70.5118 15.10912352581305 ISS (ZARYA) 1 25544U 98067A 22269.29913644 .00009910 00000-0 17955-3 0 9998 2 25544 51.6427 195.6388 0002460 295.3569 202.3641 15.50293448360860 CXO 1 25867U 99040B 22271.18095592 .00001109 00000-0 00000-0 0 9994 2 25867 42.5443 226.4803 8914913 239.6716 0.6234 0.37815004 12181 ____________________________________________________________________ These 2-Line ...Continue Reading

[list_settings.list_name] Current TLEs

September 25th 2022 PST

HST 1 20580U 90037B 22268.11944774 .00002599 00000-0 14131-3 0 9999 2 20580 28.4694 228.2374 0002566 35.4693 70.5118 15.10912352581563 ISS (ZARYA) 1 25544U 98067A 22268.26504494 .00009058 00000-0 16494-3 0 9993 2 25544 51.6426 200.7636 0002364 290.3100 192.3099 15.50269086360701 CXO 1 25867U 99040B 22268.53629671 .00001146 00000-0 00000-0 0 9991 2 25867 42.6323 226.7575 8915753 239.4896 0.5653 0.37817141 12175 ____________________________________________________________________ These 2-Line ...Continue Reading

[list_settings.list_name] Current TLEs

September 24th 2022 PST

HST 1 20580U 90037B 22266.20616104 .00002265 00000-0 12183-3 0 9995 2 20580 28.4692 240.9224 0002468 14.4280 104.0203 15.10903324581013 ISS (ZARYA) 1 25544U 98067A 22267.36671916 .00008467 00000-0 15481-3 0 9995 2 25544 51.6423 205.2165 0002319 288.7156 217.0844 15.50249678360569 CXO 1 25867U 99040B 22268.53629671 .00001146 00000-0 00000-0 0 9991 2 25867 42.6323 226.7575 8915753 239.4896 0.5653 0.37817141 12175 ____________________________________________________________________ These 2-Line ...Continue Reading

[list_settings.list_name] Current TLEs

September 23rd 2022 PST

HST 1 20580U 90037B 22265.68758586 .00002309 00000-0 12440-3 0 9992 2 20580 28.4692 244.3604 0002455 8.8196 163.3730 15.10901542581206 ISS (ZARYA) 1 25544U 98067A 22266.33611307 .00008093 00000-0 14843-3 0 9995 2 25544 51.6423 210.3247 0002418 283.1297 227.1905 15.50229786360403 CXO 1 25867U 99040B 22268.53629671 .00001146 00000-0 00000-0 0 9991 2 25867 42.6323 226.7575 8915753 239.4896 0.5653 0.37817141 12175 ____________________________________________________________________ These 2-Line ...Continue Reading

[list_settings.list_name] Current TLEs

September 22nd 2022 PST

HST 1 20580U 90037B 22264.69601994 .00002261 00000-0 12163-3 0 9991 2 20580 28.4693 250.9342 0002434 359.0472 169.0786 15.10897064580783 ISS (ZARYA) 1 25544U 98067A 22265.36699292 .00008385 00000-0 15359-3 0 9993 2 25544 51.6422 215.1278 0002410 280.9674 217.3178 15.50214334360254 CXO 1 25867U 99040B 22265.89106424 .00001103 00000-0 00000-0 0 9996 2 25867 42.7218 227.0434 8915220 239.2885 0.4871 0.37814218 12164 ____________________________________________________________________ These 2-Line ...Continue Reading

[list_settings.list_name] Current TLEs

September 21st 2022 PST

HST 1 20580U 90037B 22264.22330538 .00002373 00000-0 12815-3 0 9991 2 20580 28.4693 254.0682 0002403 354.0662 117.7560 15.10895581580970 ISS (ZARYA) 1 25544U 98067A 22264.34024677 .00027245 00000-0 48016-3 0 9991 2 25544 51.6428 220.2201 0002499 280.2153 244.2840 15.50209155360097 CXO 1 25867U 99040B 22265.89106424 .00001103 00000-0 00000-0 0 9996 2 25867 42.7218 227.0434 8915220 239.2885 0.4871 0.37814218 12164 ____________________________________________________________________ These 2-Line ...Continue Reading

[list_settings.list_name] Current TLEs

September 20th 2022 PST

HST 1 20580U 90037B 22262.71373191 .00002138 00000-0 11443-3 0 9990 2 20580 28.4696 264.0758 0002346 336.2958 188.3414 15.10888760580483 ISS (ZARYA) 1 25544U 98067A 22263.36753337 .00008287 00000-0 15200-3 0 9998 2 25544 51.6422 225.0390 0002636 270.5398 221.9809 15.50191060359943 CXO 1 25867U 99040B 22265.89106424 .00001103 00000-0 00000+0 0 9995 2 25867 42.7218 227.0434 8915220 239.2885 0.4871 0.37814218 23324 ____________________________________________________________________ These 2-Line ...Continue Reading

[list_settings.list_name] Current TLEs

September 19th 2022 PST

HST 1 20580U 90037B 22261.45596287 .00002322 00000-0 12522-3 0 9997 2 20580 28.4697 272.4142 0002292 322.0205 187.7929 15.10884141580294 ISS (ZARYA) 1 25544U 98067A 22262.40106841 .00009439 00000-0 17218-3 0 9995 2 25544 51.6442 229.8279 0002559 269.3645 226.1131 15.50163196359795 CXO 1 25867U 99040B 22263.25085056 .00000985 00000-0 00000+0 0 9997 2 25867 42.7919 227.2859 8913419 239.1155 1.1034 0.37809322 23310 ____________________________________________________________________ These 2-Line ...Continue Reading
  • This mailing list is a public mailing list - anyone may join or leave, at any time.
  • This mailing list is announce-only.

International Space Station (ISS) / Hubble Space Telescope (HST) / Chandra X-Ray Observatory Orbital Data via EMAIL

Privacy Policy:

Private list